Regional Weather Roundup
Issued by NWS Green Bay, WI

Home | Current Version | Previous Version | Graphics & Text | Print | Product List | Glossary Off
Versions: 1 2 3 4 5 6 7 8 9 10 11 12 13 14 15 16 17 18 19 20 21 22 23 24 25 26 27 28 29 30 31 32 33 34 35 36 37 38 39 40 41 42 43 44 45 46 47 48 49 50

252
ASUS43 KGRB 250700
RWRGRB

NORTH-CENTRAL AND NORTHEAST WISCONSIN REGIONAL WEATHER ROUNDUP
NATIONAL WEATHER SERVICE GREEN BAY WI
200 AM CDT MON JUL 25 2016

WIZ005-009-010>012-018-019-250800-
NORTH CENTRAL WISCONSIN

CITY           SKY/WX    TMP DP  RH WIND       PRES   REMARKS
IRONWOOD       CLEAR     64  63  94 W8        29.89R
MANITOWISH WTR NOT AVBL
ARBOR VITAE    NOT AVBL
EAGLE RIVER    NOT AVBL
LAND O LAKES   NOT AVBL
RHINELANDER    CLEAR     63  60  90 W6        29.94S
PHILLIPS       NOT AVBL
ANTIGO         NOT AVBL
TOMAHAWK       NOT AVBL
MERRILL        NOT AVBL
$$

WIZ013-073-250800-
NORTHEAST WISCONSIN

CITY           SKY/WX    TMP DP  RH WIND       PRES   REMARKS
IRON MOUNTAIN  PTCLDY    68  60  75 W6        29.87S
MARINETTE        N/A    N/A N/A N/A MISG        N/A
$$

WIZ017-030-035>037-045-250800-
CENTRAL WISCONSIN

CITY           SKY/WX    TMP DP  RH WIND       PRES   REMARKS
MEDFORD        NOT AVBL
WAUSAU         CLEAR     67  62  84 NW3       29.94R
MOSINEE        NOT AVBL
MARSHFIELD     CLEAR     64  60  87 SW6       29.97R
WISC RAPIDS    CLEAR     66  61  84 W5        29.98R
STEVENS POINT  NOT AVBL
WAUPACA        NOT AVBL
SHAWANO        NOT AVBL
CLINTONVILLE   NOT AVBL
WAUTOMA        CLOUDY    67  65  93 W6        29.97R
$$

WIZ038-039-048-051-250800-
FOX VALLEY

CITY           SKY/WX    TMP DP  RH WIND       PRES   REMARKS
NWS GREEN BAY  CLOUDY    69  67  93 W9        29.91R
APPLETON       NOT AVBL
OSHKOSH        CLOUDY    72  64  76 W6        29.93R
FOND DU LAC    CLOUDY    73  65  75 W7        29.94R
$$

WIZ022-050-052-250800-
EAST CENTRAL WISCONSIN

CITY           SKY/WX    TMP DP  RH WIND       PRES   REMARKS
EPHRAIM        FAIR      70  65  85 W5        29.87R
WASHINGTON ISL NOT AVBL
STURGEON BAY   CLOUDY    72  67  84 W6        29.90R
MANITOWOC      NOT AVBL
SHEBOYGAN      CLOUDY    74  64  71 W8        29.91S
$$

LMZ563-521-522-541>543-250800-
LAKESHORE

STATION/POSITION TIME  TEMP    WIND        PRES    VSBY  WAVE
                       AIR SEA DIR/SP/G                  HT/PER
                 (UTC) (F)     (DEG/KT/KT) (MB)    (MI)  (FT/S)
SHEBOYGAN LKSHOR 0600   77     290/ 10/ 13 1012.6R
KEWAUNEE LKSHORE 0600   73     300/  5/  7 1011.1R
NORTHPORT PIER   0600   72     240/  4/  4 1010.8R
N MID LAKE BUOY  0550   70 68  290/  4/  4 1009.4R         3/ 6
CHAMBERS ISLAND  0600   71     250/  2/  4 1011.2R
MENOMINEE LKSHOR 0600   74     270/  5/  8 1010.6R
$$




USA.gov is the U.S. government's official web portal to all federal, state and local government web resources and services.